date,time,SUV Intensity [MED/Hr],UV Index,Daily total [MED],Since Last [MED]
28/10/2023,00:02:52,-0.000,0.0,0.0,0.0
28/10/2023,00:03:52,-0.001,0.0,0.0,0.0
28/10/2023,00:04:52,0.000,0.0,0.0,0.0
28/10/2023,00:05:53,-0.000,0.0,0.0,0.0
28/10/2023,00:06:52,-0.001,0.0,0.0,0.0
28/10/2023,00:07:52,0.000,0.0,0.0,0.0
28/10/2023,00:08:53,-0.000,0.0,0.0,0.0
28/10/2023,00:09:52,0.000,0.0,0.0,0.0
28/10/2023,00:10:52,0.000,0.0,0.0,0.0
28/10/2023,00:11:53,-0.000,0.0,0.0,0.0
28/10/2023,00:12:52,0.000,0.0,0.0,0.0
28/10/2023,00:13:52,0.001,0.0,0.0,0.0
28/10/2023,00:14:53,-0.000,0.0,0.0,0.0
28/10/2023,00:15:52,-0.000,0.0,0.0,0.0
28/10/2023,00:16:53,0.000,0.0,0.0,0.0
28/10/2023,00:17:52,0.000,0.0,0.0,0.0
28/10/2023,00:18:52,-0.001,0.0,0.0,0.0
28/10/2023,00:19:53,0.001,0.0,0.0,0.0
28/10/2023,00:20:52,0.000,0.0,0.0,0.0
28/10/2023,00:21:52,0.001,0.0,0.0,0.0
28/10/2023,00:22:53,0.000,0.0,0.0,0.0
28/10/2023,00:23:52,0.001,0.0,0.0,0.0
28/10/2023,00:24:53,-0.000,0.0,0.0,0.0
28/10/2023,00:25:52,-0.000,0.0,0.0,0.0
28/10/2023,00:26:53,0.000,0.0,0.0,0.0
28/10/2023,00:27:53,-0.001,0.0,0.0,0.0
28/10/2023,00:28:53,0.000,0.0,0.0,0.0
28/10/2023,00:29:52,0.000,0.0,0.0,0.0
28/10/2023,00:30:52,0.000,0.0,0.0,0.0
28/10/2023,00:31:52,-0.000,0.0,0.0,0.0
28/10/2023,00:32:53,-0.001,0.0,0.0,0.0
28/10/2023,00:33:52,0.000,0.0,0.0,0.0
28/10/2023,00:34:53,0.000,0.0,0.0,0.0
28/10/2023,00:35:52,-0.001,0.0,0.0,0.0
28/10/2023,00:36:53,-0.000,0.0,0.0,0.0
28/10/2023,00:37:52,-0.000,0.0,0.0,0.0
28/10/2023,00:38:53,0.000,0.0,0.0,0.0
28/10/2023,00:39:52,0.000,0.0,0.0,0.0
28/10/2023,00:40:52,-0.000,0.0,0.0,0.0
28/10/2023,00:41:53,0.000,0.0,0.0,0.0
28/10/2023,00:42:53,0.001,0.0,0.0,0.0
28/10/2023,00:43:52,-0.000,0.0,0.0,0.0
28/10/2023,00:44:52,0.001,0.0,0.0,0.0
28/10/2023,00:45:53,-0.000,0.0,0.0,0.0
28/10/2023,00:46:53,0.000,0.0,0.0,0.0
28/10/2023,00:47:53,0.000,0.0,0.0,0.0
28/10/2023,00:48:53,0.000,0.0,0.0,0.0
28/10/2023,00:49:53,0.000,0.0,0.0,0.0
28/10/2023,00:50:52,0.000,0.0,0.0,0.0
28/10/2023,00:51:52,0.000,0.0,0.0,0.0
28/10/2023,00:52:53,0.001,0.0,0.0,0.0
28/10/2023,00:53:53,-0.000,0.0,0.0,0.0
28/10/2023,00:54:53,0.000,0.0,0.0,0.0
28/10/2023,00:55:53,0.000,0.0,0.0,0.0
28/10/2023,00:56:52,-0.001,0.0,0.0,0.0
28/10/2023,00:57:53,0.001,0.0,0.0,0.0
28/10/2023,00:58:52,0.001,0.0,0.0,0.0
28/10/2023,00:59:53,0.001,0.0,0.0,0.0
28/10/2023,01:00:52,0.000,0.0,0.0,0.0
28/10/2023,01:01:52,0.000,0.0,0.0,0.0
28/10/2023,01:02:53,0.001,0.0,0.0,0.0
28/10/2023,01:03:52,0.000,0.0,0.0,0.0
28/10/2023,01:04:52,-0.001,0.0,0.0,0.0
28/10/2023,01:05:52,0.000,0.0,0.0,0.0
28/10/2023,01:06:52,0.000,0.0,0.0,0.0
28/10/2023,01:07:53,0.000,0.0,0.0,0.0
28/10/2023,01:08:53,0.000,0.0,0.0,0.0
28/10/2023,01:09:53,0.001,0.0,0.0,0.0
28/10/2023,01:10:52,0.001,0.0,0.0,0.0
28/10/2023,01:11:52,0.000,0.0,0.0,0.0
28/10/2023,01:12:53,0.000,0.0,0.0,0.0
28/10/2023,01:13:53,0.000,0.0,0.0,0.0
28/10/2023,01:14:53,-0.000,0.0,0.0,0.0
28/10/2023,01:15:53,0.001,0.0,0.0,0.0
28/10/2023,01:16:52,0.000,0.0,0.0,0.0
28/10/2023,01:17:53,0.000,0.0,0.0,0.0
28/10/2023,01:18:53,0.000,0.0,0.0,0.0
28/10/2023,01:19:53,0.001,0.0,0.0,0.0
28/10/2023,01:20:53,0.000,0.0,0.0,0.0
28/10/2023,01:21:53,0.000,0.0,0.0,0.0
28/10/2023,01:22:53,0.001,0.0,0.0,0.0
28/10/2023,01:23:52,0.000,0.0,0.0,0.0
28/10/2023,01:24:52,0.000,0.0,0.0,0.0
28/10/2023,01:25:53,0.001,0.0,0.0,0.0
28/10/2023,01:26:53,0.001,0.0,0.0,0.0
28/10/2023,01:27:53,0.001,0.0,0.0,0.0
28/10/2023,01:28:52,0.000,0.0,0.0,0.0
28/10/2023,01:29:53,0.000,0.0,0.0,0.0
28/10/2023,01:30:53,0.001,0.0,0.0,0.0
28/10/2023,01:31:53,0.000,0.0,0.0,0.0
28/10/2023,01:32:53,0.000,0.0,0.0,0.0
28/10/2023,01:33:53,-0.001,0.0,0.0,0.0
28/10/2023,01:34:53,0.001,0.0,0.0,0.0
28/10/2023,01:35:52,-0.000,0.0,0.0,0.0
28/10/2023,01:36:53,0.001,0.0,0.0,0.0
28/10/2023,01:37:53,0.000,0.0,0.0,0.0
28/10/2023,01:38:53,0.000,0.0,0.0,0.0
28/10/2023,01:39:53,0.001,0.0,0.0,0.0
28/10/2023,01:40:52,0.000,0.0,0.0,0.0
28/10/2023,01:41:53,0.000,0.0,0.0,0.0
28/10/2023,01:42:52,-0.001,0.0,0.0,0.0
28/10/2023,01:43:52,0.000,0.0,0.0,0.0
28/10/2023,01:44:52,-0.001,0.0,0.0,0.0
28/10/2023,01:45:52,0.000,0.0,0.0,0.0
28/10/2023,01:46:52,0.000,0.0,0.0,0.0
28/10/2023,01:47:52,0.001,0.0,0.0,0.0
28/10/2023,01:48:53,0.001,0.0,0.0,0.0
28/10/2023,01:49:52,0.000,0.0,0.0,0.0
28/10/2023,01:50:53,0.000,0.0,0.0,0.0
28/10/2023,01:51:53,0.001,0.0,0.0,0.0
28/10/2023,01:52:52,-0.001,0.0,0.0,0.0
28/10/2023,01:53:53,0.001,0.0,0.0,0.0
28/10/2023,01:54:53,0.001,0.0,0.0,0.0
28/10/2023,01:55:53,0.000,0.0,0.0,0.0
28/10/2023,01:56:53,-0.000,0.0,0.0,0.0
28/10/2023,01:57:52,-0.000,0.0,0.0,0.0
28/10/2023,01:58:53,-0.000,0.0,0.0,0.0
28/10/2023,01:59:52,-0.000,0.0,0.0,0.0
28/10/2023,02:00:52,0.000,0.0,0.0,0.0
28/10/2023,02:01:52,0.000,0.0,0.0,0.0
28/10/2023,02:02:53,0.001,0.0,0.0,0.0
28/10/2023,02:03:53,0.000,0.0,0.0,0.0
28/10/2023,02:04:53,0.000,0.0,0.0,0.0
28/10/2023,02:05:53,0.000,0.0,0.0,0.0
28/10/2023,02:06:53,0.001,0.0,0.0,0.0
28/10/2023,02:07:53,0.001,0.0,0.0,0.0
28/10/2023,02:08:54,0.000,0.0,0.0,0.0
28/10/2023,02:09:53,0.000,0.0,0.0,0.0
28/10/2023,02:10:53,-0.001,0.0,0.0,0.0
28/10/2023,02:11:52,0.000,0.0,0.0,0.0
28/10/2023,02:12:52,0.000,0.0,0.0,0.0
28/10/2023,02:13:54,-0.000,0.0,0.0,0.0
28/10/2023,02:14:53,0.001,0.0,0.0,0.0
28/10/2023,02:15:53,0.000,0.0,0.0,0.0
28/10/2023,02:16:52,0.000,0.0,0.0,0.0
28/10/2023,02:17:53,-0.001,0.0,0.0,0.0
28/10/2023,02:18:53,-0.000,0.0,0.0,0.0
28/10/2023,02:19:53,0.000,0.0,0.0,0.0
28/10/2023,02:20:53,0.000,0.0,0.0,0.0
28/10/2023,02:21:53,0.000,0.0,0.0,0.0
28/10/2023,02:22:53,0.000,0.0,0.0,0.0
28/10/2023,02:23:53,0.000,0.0,0.0,0.0
28/10/2023,02:24:53,0.001,0.0,0.0,0.0
28/10/2023,02:25:52,-0.001,0.0,0.0,0.0
28/10/2023,02:26:53,0.000,0.0,0.0,0.0
28/10/2023,02:27:53,0.000,0.0,0.0,0.0
28/10/2023,02:28:52,-0.001,0.0,0.0,0.0
28/10/2023,02:29:53,0.001,0.0,0.0,0.0
28/10/2023,02:30:53,-0.000,0.0,0.0,0.0
28/10/2023,02:31:53,0.000,0.0,0.0,0.0
28/10/2023,02:32:53,0.000,0.0,0.0,0.0
28/10/2023,02:33:53,-0.000,0.0,0.0,0.0
28/10/2023,02:34:53,0.000,0.0,0.0,0.0
28/10/2023,02:35:53,0.000,0.0,0.0,0.0
28/10/2023,02:36:53,0.000,0.0,0.0,0.0
28/10/2023,02:37:53,0.000,0.0,0.0,0.0
28/10/2023,02:38:53,0.000,0.0,0.0,0.0
28/10/2023,02:39:53,0.000,0.0,0.0,0.0
28/10/2023,02:40:53,-0.000,0.0,0.0,0.0
28/10/2023,02:41:53,-0.000,0.0,0.0,0.0
28/10/2023,02:42:53,-0.000,0.0,0.0,0.0
28/10/2023,02:43:52,0.000,0.0,0.0,0.0
28/10/2023,02:44:52,-0.001,0.0,0.0,0.0
28/10/2023,02:45:53,-0.001,0.0,0.0,0.0
28/10/2023,02:46:53,-0.000,0.0,0.0,0.0
28/10/2023,02:47:53,-0.000,0.0,0.0,0.0
28/10/2023,02:48:53,0.000,0.0,0.0,0.0
28/10/2023,02:49:53,0.000,0.0,0.0,0.0
28/10/2023,02:50:53,-0.000,0.0,0.0,0.0
28/10/2023,02:51:53,-0.001,0.0,0.0,0.0
28/10/2023,02:52:53,0.000,0.0,0.0,0.0
28/10/2023,02:53:53,-0.000,0.0,0.0,0.0
28/10/2023,02:54:52,0.001,0.0,0.0,0.0
28/10/2023,02:55:53,-0.000,0.0,0.0,0.0
28/10/2023,02:56:53,-0.000,0.0,0.0,0.0
28/10/2023,02:57:53,0.001,0.0,0.0,0.0
28/10/2023,02:58:53,-0.001,0.0,0.0,0.0
28/10/2023,02:59:53,0.000,0.0,0.0,0.0
28/10/2023,03:00:53,0.000,0.0,0.0,0.0
28/10/2023,03:01:53,-0.000,0.0,0.0,0.0
28/10/2023,03:02:53,0.000,0.0,0.0,0.0
28/10/2023,03:03:52,0.000,0.0,0.0,0.0
28/10/2023,03:04:52,0.000,0.0,0.0,0.0
28/10/2023,03:05:53,0.000,0.0,0.0,0.0
28/10/2023,03:06:53,0.000,0.0,0.0,0.0
28/10/2023,03:07:53,-0.000,0.0,0.0,0.0
28/10/2023,03:08:52,0.000,0.0,0.0,0.0
28/10/2023,03:09:53,0.000,0.0,0.0,0.0
28/10/2023,03:10:53,0.001,0.0,0.0,0.0
28/10/2023,03:11:52,0.000,0.0,0.0,0.0
28/10/2023,03:12:53,-0.001,0.0,0.0,0.0
28/10/2023,03:13:53,-0.001,0.0,0.0,0.0
28/10/2023,03:14:53,-0.000,0.0,0.0,0.0
28/10/2023,03:15:53,-0.000,0.0,0.0,0.0
28/10/2023,03:16:53,0.000,0.0,0.0,0.0
28/10/2023,03:17:53,0.001,0.0,0.0,0.0
28/10/2023,03:18:52,0.000,0.0,0.0,0.0
28/10/2023,03:19:53,-0.000,0.0,0.0,0.0
28/10/2023,03:20:53,0.000,0.0,0.0,0.0
28/10/2023,03:21:53,0.001,0.0,0.0,0.0
28/10/2023,03:22:53,0.000,0.0,0.0,0.0
28/10/2023,03:23:53,0.000,0.0,0.0,0.0
28/10/2023,03:24:54,-0.001,0.0,0.0,0.0
28/10/2023,03:25:53,-0.000,0.0,0.0,0.0
28/10/2023,03:26:53,0.000,0.0,0.0,0.0
28/10/2023,03:27:53,0.001,0.0,0.0,0.0
28/10/2023,03:28:53,-0.000,0.0,0.0,0.0
28/10/2023,03:29:53,-0.001,0.0,0.0,0.0
28/10/2023,03:30:53,0.001,0.0,0.0,0.0
28/10/2023,03:31:53,-0.000,0.0,0.0,0.0
28/10/2023,03:32:53,-0.001,0.0,0.0,0.0
28/10/2023,03:33:53,0.000,0.0,0.0,0.0
28/10/2023,03:34:52,-0.000,0.0,0.0,0.0
28/10/2023,03:35:53,-0.000,0.0,0.0,0.0
28/10/2023,03:36:53,0.000,0.0,0.0,0.0
28/10/2023,03:37:53,0.000,0.0,0.0,0.0
28/10/2023,03:38:52,0.001,0.0,0.0,0.0
28/10/2023,03:39:53,0.000,0.0,0.0,0.0
28/10/2023,03:40:52,0.001,0.0,0.0,0.0
28/10/2023,03:41:53,-0.000,0.0,0.0,0.0
28/10/2023,03:42:53,0.000,0.0,0.0,0.0
28/10/2023,03:43:53,-0.000,0.0,0.0,0.0
28/10/2023,03:44:53,0.001,0.0,0.0,0.0
28/10/2023,03:45:53,-0.000,0.0,0.0,0.0
28/10/2023,03:46:53,0.000,0.0,0.0,0.0
28/10/2023,03:47:53,0.000,0.0,0.0,0.0
28/10/2023,03:48:53,-0.000,0.0,0.0,0.0
28/10/2023,03:49:52,0.000,0.0,0.0,0.0
28/10/2023,03:50:53,0.001,0.0,0.0,0.0
28/10/2023,03:51:53,-0.001,0.0,0.0,0.0
28/10/2023,03:52:53,0.001,0.0,0.0,0.0
28/10/2023,03:53:53,-0.000,0.0,0.0,0.0
28/10/2023,03:54:53,0.000,0.0,0.0,0.0
28/10/2023,03:55:53,-0.000,0.0,0.0,0.0
28/10/2023,03:56:53,0.000,0.0,0.0,0.0
28/10/2023,03:57:53,0.001,0.0,0.0,0.0
28/10/2023,03:58:53,-0.000,0.0,0.0,0.0
28/10/2023,03:59:53,0.001,0.0,0.0,0.0
28/10/2023,04:00:53,0.000,0.0,0.0,0.0
28/10/2023,04:01:53,0.000,0.0,0.0,0.0
28/10/2023,04:02:53,0.001,0.0,0.0,0.0
28/10/2023,04:03:53,0.000,0.0,0.0,0.0
28/10/2023,04:04:53,-0.001,0.0,0.0,0.0
28/10/2023,04:05:53,0.001,0.0,0.0,0.0
28/10/2023,04:06:53,-0.001,0.0,0.0,0.0
28/10/2023,04:07:52,-0.000,0.0,0.0,0.0
28/10/2023,04:08:53,0.000,0.0,0.0,0.0
28/10/2023,04:09:52,0.000,0.0,0.0,0.0
28/10/2023,04:10:52,0.001,0.0,0.0,0.0
28/10/2023,04:11:53,0.001,0.0,0.0,0.0
28/10/2023,04:12:53,0.000,0.0,0.0,0.0
28/10/2023,04:13:53,0.000,0.0,0.0,0.0
28/10/2023,04:14:53,-0.001,0.0,0.0,0.0
28/10/2023,04:15:53,-0.001,0.0,0.0,0.0
28/10/2023,04:16:53,0.000,0.0,0.0,0.0
28/10/2023,04:17:52,-0.000,0.0,0.0,0.0
28/10/2023,04:18:53,0.001,0.0,0.0,0.0
28/10/2023,04:19:53,0.001,0.0,0.0,0.0
28/10/2023,04:20:52,0.000,0.0,0.0,0.0
28/10/2023,04:21:53,0.001,0.0,0.0,0.0
28/10/2023,04:22:53,0.001,0.0,0.0,0.0
28/10/2023,04:23:52,-0.000,0.0,0.0,0.0
28/10/2023,04:24:53,0.000,0.0,0.0,0.0
28/10/2023,04:25:53,0.001,0.0,0.0,0.0
28/10/2023,04:26:53,0.000,0.0,0.0,0.0
28/10/2023,04:27:53,0.000,0.0,0.0,0.0
28/10/2023,04:28:52,0.000,0.0,0.0,0.0
28/10/2023,04:29:53,0.000,0.0,0.0,0.0
28/10/2023,04:30:53,0.000,0.0,0.0,0.0
28/10/2023,04:31:53,-0.000,0.0,0.0,0.0
28/10/2023,04:32:52,0.000,0.0,0.0,0.0
28/10/2023,04:33:53,-0.000,0.0,0.0,0.0
28/10/2023,04:34:53,0.001,0.0,0.0,0.0
28/10/2023,04:35:53,0.000,0.0,0.0,0.0
28/10/2023,04:36:53,0.000,0.0,0.0,0.0
28/10/2023,04:37:52,-0.001,0.0,0.0,0.0
28/10/2023,04:38:53,0.001,0.0,0.0,0.0
28/10/2023,04:39:53,0.000,0.0,0.0,0.0
28/10/2023,04:40:53,0.000,0.0,0.0,0.0
28/10/2023,04:41:53,0.000,0.0,0.0,0.0
28/10/2023,04:42:53,0.001,0.0,0.0,0.0
28/10/2023,04:43:52,0.000,0.0,0.0,0.0
28/10/2023,04:45:15,0.001,0.0,0.0,0.0
28/10/2023,04:45:53,0.000,0.0,0.0,0.0
28/10/2023,04:46:53,0.001,0.0,0.0,0.0
28/10/2023,04:47:52,0.000,0.0,0.0,0.0
28/10/2023,04:48:52,0.001,0.0,0.0,0.0
28/10/2023,04:49:53,0.000,0.0,0.0,0.0
28/10/2023,04:50:53,0.000,0.0,0.0,0.0
28/10/2023,04:51:54,0.000,0.0,0.0,0.0
28/10/2023,04:52:53,0.000,0.0,0.0,0.0
28/10/2023,04:53:53,0.001,0.0,0.0,0.0
28/10/2023,04:54:53,0.001,0.0,0.0,0.0
28/10/2023,04:55:53,-0.000,0.0,0.0,0.0
28/10/2023,04:56:53,0.001,0.0,0.0,0.0
28/10/2023,04:57:53,0.000,0.0,0.0,0.0
28/10/2023,04:58:53,0.001,0.0,0.0,0.0
28/10/2023,04:59:53,0.001,0.0,0.0,0.0
28/10/2023,05:00:53,0.001,0.0,0.0,0.0
28/10/2023,05:01:53,0.000,0.0,0.0,0.0
28/10/2023,05:02:52,-0.000,0.0,0.0,0.0
28/10/2023,05:03:53,0.000,0.0,0.0,0.0
28/10/2023,05:04:53,0.001,0.0,0.0,0.0
28/10/2023,05:05:53,0.000,0.0,0.0,0.0
28/10/2023,05:06:53,0.001,0.0,0.0,0.0
28/10/2023,05:07:53,0.001,0.0,0.0,0.0
28/10/2023,05:08:53,0.001,0.0,0.0,0.0
28/10/2023,05:09:53,0.001,0.0,0.0,0.0
28/10/2023,05:10:52,0.001,0.0,0.0,0.0
28/10/2023,05:11:53,0.001,0.0,0.0,0.0
28/10/2023,05:12:53,0.001,0.0,0.0,0.0
28/10/2023,05:13:53,-0.001,0.0,0.0,0.0
28/10/2023,05:14:53,0.001,0.0,0.0,0.0
28/10/2023,05:15:53,0.001,0.0,0.0,0.0
28/10/2023,05:16:53,0.000,0.0,0.0,0.0
28/10/2023,05:17:53,0.000,0.0,0.0,0.0
28/10/2023,05:18:53,0.001,0.0,0.0,0.0
28/10/2023,05:19:53,0.001,0.0,0.0,0.0
28/10/2023,05:20:53,0.000,0.0,0.0,0.0
28/10/2023,05:21:53,0.001,0.0,0.0,0.0
28/10/2023,05:22:53,0.002,0.0,0.0,0.0
28/10/2023,05:23:53,-0.000,0.0,0.0,0.0
28/10/2023,05:24:53,0.001,0.0,0.0,0.0
28/10/2023,05:25:53,0.000,0.0,0.0,0.0
28/10/2023,05:26:53,0.001,0.0,0.0,0.0
28/10/2023,05:27:53,0.001,0.0,0.0,0.0
28/10/2023,05:28:53,0.001,0.0,0.0,0.0
28/10/2023,05:29:53,0.001,0.0,0.0,0.0
28/10/2023,05:30:53,0.001,0.0,0.0,0.0
28/10/2023,05:31:53,0.001,0.0,0.0,0.0
28/10/2023,05:32:53,0.000,0.0,0.0,0.0
28/10/2023,05:33:53,0.001,0.0,0.0,0.0
28/10/2023,05:34:53,0.001,0.0,0.0,0.0
28/10/2023,05:35:53,0.001,0.0,0.0,0.0
28/10/2023,05:36:53,0.001,0.0,0.0,0.0
28/10/2023,05:37:53,0.001,0.0,0.0,0.0
28/10/2023,05:38:53,0.001,0.0,0.0,0.0
28/10/2023,05:39:53,0.001,0.0,0.0,0.0
28/10/2023,05:40:53,0.001,0.0,0.0,0.0
28/10/2023,05:41:53,0.001,0.0,0.0,0.0
28/10/2023,05:42:53,-0.000,0.0,0.0,0.0
28/10/2023,05:43:53,0.001,0.0,0.0,0.0
28/10/2023,05:44:53,0.000,0.0,0.0,0.0
28/10/2023,05:45:54,-0.001,0.0,0.0,0.0
28/10/2023,05:46:53,0.002,0.0,0.0,0.0
28/10/2023,05:47:53,0.000,0.0,0.0,0.0
28/10/2023,05:48:53,0.001,0.0,0.0,0.0
28/10/2023,05:49:53,0.000,0.0,0.0,0.0
28/10/2023,05:50:53,0.001,0.0,0.0,0.0
28/10/2023,05:51:53,0.000,0.0,0.0,0.0
28/10/2023,05:52:53,-0.001,0.0,0.0,0.0
28/10/2023,05:53:53,0.001,0.0,0.0,0.0
28/10/2023,05:54:53,0.001,0.0,0.0,0.0
28/10/2023,05:55:53,0.000,0.0,0.0,0.0
28/10/2023,05:56:53,0.001,0.0,0.0,0.0
28/10/2023,05:57:53,0.001,0.0,0.0,0.0
28/10/2023,05:58:53,0.001,0.0,0.0,0.0
28/10/2023,05:59:53,0.000,0.0,0.0,0.0
28/10/2023,06:00:52,0.001,0.0,0.0,0.0
28/10/2023,06:01:53,0.001,0.0,0.0,0.0
28/10/2023,06:02:53,0.000,0.0,0.0,0.0
28/10/2023,06:03:53,-0.001,0.0,0.0,0.0
28/10/2023,06:04:53,0.000,0.0,0.0,0.0
28/10/2023,06:05:53,0.000,0.0,0.0,0.0
28/10/2023,06:06:53,0.000,0.0,0.0,0.0
28/10/2023,06:07:53,0.001,0.0,0.0,0.0
28/10/2023,06:08:53,0.000,0.0,0.0,0.0
28/10/2023,06:09:53,0.001,0.0,0.0,0.0
28/10/2023,06:10:53,-0.000,0.0,0.0,0.0
28/10/2023,06:11:53,0.001,0.0,0.0,0.0
28/10/2023,06:12:53,0.001,0.0,0.0,0.0
28/10/2023,06:13:53,0.000,0.0,0.0,0.0
28/10/2023,06:14:53,0.001,0.0,0.0,0.0
28/10/2023,06:15:53,0.001,0.0,0.0,0.0
28/10/2023,06:16:53,0.001,0.0,0.0,0.0
28/10/2023,06:17:53,-0.000,0.0,0.0,0.0
28/10/2023,06:18:53,0.001,0.0,0.0,0.0
28/10/2023,06:19:53,0.001,0.0,0.0,0.0
28/10/2023,06:20:53,0.001,0.0,0.0,0.0
28/10/2023,06:21:53,0.001,0.0,0.0,0.0
28/10/2023,06:22:53,0.001,0.0,0.0,0.0
28/10/2023,06:23:53,0.001,0.0,0.0,0.0
28/10/2023,06:24:53,0.000,0.0,0.0,0.0
28/10/2023,06:25:53,0.001,0.0,0.0,0.0
28/10/2023,06:26:53,0.001,0.0,0.0,0.0
28/10/2023,06:27:53,0.001,0.0,0.0,0.0
28/10/2023,06:28:53,0.001,0.0,0.0,0.0
28/10/2023,06:29:53,-0.000,0.0,0.0,0.0
28/10/2023,06:30:54,0.001,0.0,0.0,0.0
28/10/2023,06:31:53,0.001,0.0,0.0,0.0
28/10/2023,06:32:54,0.001,0.0,0.0,0.0
28/10/2023,06:33:53,0.001,0.0,0.0,0.0
28/10/2023,06:34:53,0.002,0.0,0.0,0.0
28/10/2023,06:35:53,0.001,0.0,0.0,0.0
28/10/2023,06:36:53,0.001,0.0,0.0,0.0
28/10/2023,06:37:53,0.002,0.0,0.0,0.0
28/10/2023,06:38:53,0.001,0.0,0.0,0.0
28/10/2023,06:39:53,0.001,0.0,0.0,0.0
28/10/2023,06:40:53,0.000,0.0,0.0,0.0
28/10/2023,06:41:53,0.001,0.0,0.0,0.0
28/10/2023,06:42:53,0.001,0.0,0.0,0.0
28/10/2023,06:43:53,0.001,0.0,0.0,0.0
28/10/2023,06:44:53,0.001,0.0,0.0,0.0
28/10/2023,06:45:53,0.002,0.0,0.0,0.0
28/10/2023,06:46:53,0.001,0.0,0.0,0.0
28/10/2023,06:47:53,0.002,0.0,0.0,0.0
28/10/2023,06:48:53,0.002,0.0,0.0,0.0
28/10/2023,06:49:53,0.002,0.0,0.0,0.0
28/10/2023,06:50:53,0.002,0.0,0.0,0.0
28/10/2023,06:51:53,0.002,0.0,0.0,0.0
28/10/2023,06:52:53,0.004,0.0,0.0,0.0
28/10/2023,06:53:53,0.003,0.0,0.0,0.0
28/10/2023,06:54:53,0.003,0.0,0.0,0.0
28/10/2023,06:55:53,0.003,0.0,0.0,0.0
28/10/2023,06:56:53,0.002,0.0,0.0,0.0
28/10/2023,06:57:53,0.003,0.0,0.0,0.0
28/10/2023,06:58:53,0.004,0.0,0.0,0.0
28/10/2023,06:59:53,0.004,0.0,0.0,0.0
28/10/2023,07:00:54,0.004,0.0,0.0,0.0
28/10/2023,07:01:53,0.004,0.0,0.0,0.0
28/10/2023,07:02:53,0.004,0.0,0.0,0.0
28/10/2023,07:03:53,0.004,0.0,0.0,0.0
28/10/2023,07:04:53,0.004,0.0,0.0,0.0
28/10/2023,07:05:53,0.005,0.0,0.0,0.0
28/10/2023,07:06:53,0.005,0.0,0.0,0.0
28/10/2023,07:07:53,0.006,0.0,0.0,0.0
28/10/2023,07:08:53,0.006,0.0,0.0,0.0
28/10/2023,07:09:53,0.006,0.0,0.0,0.0
28/10/2023,07:10:53,0.006,0.0,0.0,0.0
28/10/2023,07:11:53,0.007,0.0,0.0,0.0
28/10/2023,07:12:53,0.008,0.0,0.001,0.001
28/10/2023,07:13:56,0.007,0.0,0.001,0.0
28/10/2023,07:14:53,0.008,0.0,0.001,0.0
28/10/2023,07:15:54,0.008,0.0,0.001,0.0
28/10/2023,07:16:53,0.008,0.0,0.001,0.0
28/10/2023,07:17:53,0.008,0.0,0.001,0.0
28/10/2023,07:18:53,0.009,0.0,0.001,0.0
28/10/2023,07:19:53,0.009,0.0,0.001,0.0
28/10/2023,07:20:53,0.009,0.0,0.002,0.001
28/10/2023,07:21:53,0.010,0.0,0.002,0.0
28/10/2023,07:22:53,0.010,0.0,0.002,0.0
28/10/2023,07:23:53,0.010,0.0,0.002,0.0
28/10/2023,07:24:54,0.011,0.0,0.002,0.0
28/10/2023,07:25:53,0.011,0.0,0.002,0.0
28/10/2023,07:26:53,0.012,0.0,0.003,0.001
28/10/2023,07:27:53,0.013,0.0,0.003,0.0
28/10/2023,07:28:54,0.013,0.0,0.003,0.0
28/10/2023,07:29:53,0.013,0.0,0.003,0.0
28/10/2023,07:30:53,0.012,0.0,0.004,0.001
28/10/2023,07:31:53,0.015,0.0,0.004,0.0
28/10/2023,07:32:54,0.014,0.0,0.004,0.0
28/10/2023,07:33:53,0.015,0.0,0.004,0.0
28/10/2023,07:34:53,0.015,0.0,0.004,0.0
28/10/2023,07:35:53,0.016,0.0,0.005,0.001
28/10/2023,07:36:53,0.018,0.0,0.005,0.0
28/10/2023,07:37:53,0.018,0.0,0.005,0.0
28/10/2023,07:38:53,0.017,0.0,0.006,0.001
28/10/2023,07:39:53,0.017,0.0,0.006,0.0
28/10/2023,07:40:53,0.018,0.0,0.006,0.0
28/10/2023,07:41:53,0.018,0.0,0.006,0.0
28/10/2023,07:42:53,0.019,0.0,0.007,0.001
28/10/2023,07:43:53,0.021,0.0,0.007,0.0
28/10/2023,07:44:54,0.021,0.0,0.007,0.0
28/10/2023,07:45:53,0.021,0.0,0.008,0.001
28/10/2023,07:46:54,0.023,0.0,0.008,0.0
28/10/2023,07:47:53,0.023,0.0,0.009,0.001
28/10/2023,07:48:53,0.024,0.0,0.009,0.0
28/10/2023,07:49:53,0.025,0.0,0.009,0.0
28/10/2023,07:50:53,0.028,0.0,0.01,0.001
28/10/2023,07:51:54,0.030,0.0,0.01,0.0
28/10/2023,07:52:53,0.032,0.0,0.011,0.001
28/10/2023,07:53:53,0.032,0.0,0.011,0.0
28/10/2023,07:54:53,0.034,0.0,0.012,0.001
28/10/2023,07:55:53,0.035,0.0,0.012,0.0
28/10/2023,07:56:54,0.035,0.0,0.013,0.001
28/10/2023,07:57:53,0.036,0.0,0.014,0.001
28/10/2023,07:58:53,0.037,0.0,0.014,0.0
28/10/2023,07:59:53,0.039,0.0,0.015,0.001
28/10/2023,08:00:53,0.038,0.0,0.016,0.001
28/10/2023,08:01:53,0.040,0.0,0.016,0.0
28/10/2023,08:02:53,0.041,0.0,0.017,0.001
28/10/2023,08:03:53,0.042,0.0,0.018,0.001
28/10/2023,08:04:53,0.043,0.0,0.018,0.0
28/10/2023,08:05:53,0.044,0.0,0.019,0.001
28/10/2023,08:06:53,0.045,0.0,0.02,0.001
28/10/2023,08:07:53,0.045,0.0,0.02,0.0
28/10/2023,08:08:53,0.047,0.0,0.021,0.001
28/10/2023,08:09:53,0.049,0.0,0.022,0.001
28/10/2023,08:10:53,0.049,0.0,0.023,0.001
28/10/2023,08:11:53,0.053,0.0,0.024,0.001
28/10/2023,08:12:53,0.053,0.0,0.025,0.001
28/10/2023,08:13:53,0.054,0.0,0.026,0.001
28/10/2023,08:14:53,0.054,0.0,0.026,0.0
28/10/2023,08:15:53,0.056,0.0,0.027,0.001
28/10/2023,08:16:53,0.057,0.0,0.028,0.001
28/10/2023,08:17:53,0.057,0.0,0.029,0.001
28/10/2023,08:18:53,0.059,0.0,0.03,0.001
28/10/2023,08:19:53,0.060,0.0,0.031,0.001
28/10/2023,08:20:53,0.061,0.0,0.032,0.001
28/10/2023,08:21:53,0.062,0.0,0.033,0.001
28/10/2023,08:22:53,0.063,0.0,0.034,0.001
28/10/2023,08:23:53,0.065,0.0,0.035,0.001
28/10/2023,08:24:53,0.067,0.0,0.036,0.001
28/10/2023,08:25:53,0.069,0.0,0.038,0.002
28/10/2023,08:26:54,0.070,0.0,0.039,0.001
28/10/2023,08:27:53,0.071,0.0,0.04,0.001
28/10/2023,08:28:53,0.074,0.0,0.041,0.001
28/10/2023,08:29:53,0.074,0.0,0.042,0.001
28/10/2023,08:30:53,0.075,0.0,0.044,0.002
28/10/2023,08:31:54,0.077,0.0,0.045,0.001
28/10/2023,08:32:54,0.078,0.0,0.046,0.001
28/10/2023,08:33:53,0.080,0.0,0.048,0.002
28/10/2023,08:34:53,0.082,0.0,0.049,0.001
28/10/2023,08:35:53,0.082,0.0,0.05,0.001
28/10/2023,08:36:53,0.084,0.0,0.052,0.002
28/10/2023,08:37:53,0.086,0.0,0.053,0.001
28/10/2023,08:38:53,0.088,0.0,0.054,0.001
28/10/2023,08:39:53,0.089,0.0,0.056,0.002
28/10/2023,08:40:53,0.090,0.0,0.057,0.001
28/10/2023,08:41:54,0.092,0.0,0.059,0.002
28/10/2023,08:42:54,0.093,0.0,0.06,0.001
28/10/2023,08:43:53,0.093,0.0,0.062,0.002
28/10/2023,08:44:53,0.095,0.0,0.064,0.002
28/10/2023,08:45:53,0.097,0.0,0.065,0.001
28/10/2023,08:46:53,0.098,0.0,0.067,0.002
28/10/2023,08:47:53,0.100,0.0,0.068,0.001
28/10/2023,08:48:53,0.101,0.0,0.07,0.002
28/10/2023,08:49:54,0.102,0.0,0.072,0.002
28/10/2023,08:50:53,0.103,0.0,0.074,0.002
28/10/2023,08:51:53,0.105,0.0,0.075,0.001
28/10/2023,08:52:54,0.107,0.0,0.077,0.002
28/10/2023,08:53:53,0.109,0.0,0.079,0.002
28/10/2023,08:54:54,0.111,0.0,0.081,0.002
28/10/2023,08:55:53,0.113,0.0,0.083,0.002
28/10/2023,08:56:54,0.115,0.0,0.084,0.001
28/10/2023,08:57:53,0.116,0.0,0.086,0.002
28/10/2023,08:58:53,0.118,0.0,0.088,0.002
28/10/2023,08:59:53,0.121,0.0,0.09,0.002
28/10/2023,09:00:53,0.123,0.0,0.092,0.002
28/10/2023,09:01:53,0.125,0.0,0.094,0.002
28/10/2023,09:02:53,0.123,0.0,0.097,0.003
28/10/2023,09:03:53,0.128,0.0,0.099,0.002
28/10/2023,09:04:54,0.131,0.0,0.101,0.002
28/10/2023,09:05:53,0.132,0.0,0.103,0.002
28/10/2023,09:06:54,0.134,0.0,0.105,0.002
28/10/2023,09:07:53,0.137,0.0,0.107,0.002
28/10/2023,09:08:54,0.140,0.0,0.11,0.003
28/10/2023,09:09:53,0.142,0.0,0.112,0.002
28/10/2023,09:10:53,0.144,0.0,0.115,0.003
28/10/2023,09:11:53,0.146,0.0,0.117,0.002
28/10/2023,09:12:53,0.149,0.0,0.119,0.002
28/10/2023,09:13:54,0.150,0.0,0.122,0.003
28/10/2023,09:14:53,0.152,0.0,0.124,0.002
28/10/2023,09:15:53,0.153,0.0,0.127,0.003
28/10/2023,09:16:53,0.155,0.0,0.129,0.002
28/10/2023,09:17:53,0.156,0.0,0.132,0.003
28/10/2023,09:18:53,0.158,0.0,0.135,0.003
28/10/2023,09:19:53,0.161,0.0,0.137,0.002
28/10/2023,09:20:54,0.163,0.0,0.14,0.003
28/10/2023,09:21:54,0.163,0.0,0.143,0.003
28/10/2023,09:22:54,0.166,0.0,0.146,0.003
28/10/2023,09:23:53,0.166,0.0,0.148,0.002
28/10/2023,09:24:54,0.168,0.0,0.151,0.003
28/10/2023,09:25:53,0.172,0.0,0.154,0.003
28/10/2023,09:26:54,0.174,0.0,0.157,0.003
28/10/2023,09:27:53,0.175,0.0,0.16,0.003
28/10/2023,09:28:54,0.180,0.0,0.163,0.003
28/10/2023,09:29:53,0.181,0.0,0.166,0.003
28/10/2023,09:30:53,0.184,0.0,0.169,0.003
28/10/2023,09:31:53,0.187,0.0,0.172,0.003
28/10/2023,09:32:53,0.189,0.0,0.175,0.003
28/10/2023,09:33:53,0.191,0.0,0.178,0.003
28/10/2023,09:34:54,0.194,0.0,0.181,0.003
28/10/2023,09:35:53,0.197,0.0,0.185,0.004
28/10/2023,09:36:54,0.200,0.0,0.188,0.003
28/10/2023,09:37:53,0.201,0.0,0.191,0.003
28/10/2023,09:38:53,0.203,0.0,0.195,0.004
28/10/2023,09:39:53,0.205,0.0,0.198,0.003
28/10/2023,09:40:53,0.207,0.0,0.201,0.003
28/10/2023,09:41:54,0.209,0.0,0.205,0.004
28/10/2023,09:42:53,0.211,0.0,0.208,0.003
28/10/2023,09:43:54,0.214,0.0,0.212,0.004
28/10/2023,09:44:54,0.215,0.0,0.215,0.003
28/10/2023,09:45:53,0.218,1.0,0.219,0.004
28/10/2023,09:46:54,0.214,0.0,0.223,0.004
28/10/2023,09:47:54,0.221,1.0,0.226,0.003
28/10/2023,09:48:53,0.223,1.0,0.23,0.004
28/10/2023,09:49:54,0.224,1.0,0.234,0.004
28/10/2023,09:50:53,0.224,1.0,0.237,0.003
28/10/2023,09:51:54,0.227,1.0,0.241,0.004
28/10/2023,09:52:54,0.231,1.0,0.245,0.004
28/10/2023,09:53:52,0.229,1.0,0.249,0.004
28/10/2023,09:54:54,0.231,1.0,0.253,0.004
28/10/2023,09:55:53,0.232,1.0,0.256,0.003
28/10/2023,09:56:54,0.234,1.0,0.26,0.004
28/10/2023,09:57:54,0.237,1.0,0.264,0.004
28/10/2023,09:58:53,0.238,1.0,0.268,0.004
28/10/2023,09:59:54,0.239,1.0,0.272,0.004
28/10/2023,10:00:53,0.242,1.0,0.276,0.004
28/10/2023,10:01:54,0.244,1.0,0.28,0.004
28/10/2023,10:02:53,0.246,1.0,0.284,0.004
28/10/2023,10:03:54,0.248,1.0,0.288,0.004
28/10/2023,10:04:53,0.249,1.0,0.293,0.005
28/10/2023,10:05:53,0.250,1.0,0.297,0.004
28/10/2023,10:06:53,0.253,1.0,0.301,0.004
28/10/2023,10:07:53,0.254,1.0,0.305,0.004
28/10/2023,10:08:53,0.256,1.0,0.309,0.004
28/10/2023,10:09:53,0.258,1.0,0.314,0.005
28/10/2023,10:10:54,0.241,1.0,0.318,0.004
28/10/2023,10:11:54,0.225,1.0,0.322,0.004